This is the latest recevied weather packets stored in our database for station/object WX6HNX-12. If no packets are shown the sender has not sent any weather packets the latest 1 day(s).
| Time | Temp. | Humidity | Pressure | Rain* | Wind** | Luminosity | Snow |
|---|---|---|---|---|---|---|---|
| 1778079115 | 14.44° C | 76% | 1020.2 hPa | 0 mm | - | - | - |
| 1778078815 | 14.44° C | 76% | 1020.2 hPa | 0 mm | - | - | - |
| 1778078215 | 14.44° C | 77% | 1020.1 hPa | 0 mm | - | - | - |
| 1778077915 | 14.44° C | 77% | 1020.1 hPa | 0 mm | - | - | - |
| 1778077015 | 13.89° C | 78% | 1020.1 hPa | 0 mm | - | - | - |
| 1778076172 | 13.89° C | 79% | 1020 hPa | 0 mm | - | - | - |
| 1778073053 | 11.67° C | 80% | 1019.5 hPa | 0 mm | - | - | - |
| 1778071853 | 12.78° C | 78% | 1019.2 hPa | 0 mm | - | - | - |
| 1778071552 | 12.78° C | 78% | 1019.2 hPa | 0 mm | - | - | - |
| 1778069453 | 13.33° C | 77% | 1018.6 hPa | 0 mm | - | - | - |
| 1778067911 | 13.89° C | 74% | 1018.7 hPa | 0 mm | - | - | - |
| 1778066706 | 14.44° C | 73% | 1018.6 hPa | 0 mm | - | - | - |
| 1778066111 | 14.44° C | 73% | 1018.6 hPa | 0 mm | - | - | - |
| 1778063868 | 14.44° C | 73% | 1018.5 hPa | 0 mm | - | - | - |
| 1778063569 | 14.44° C | 73% | 1018.5 hPa | 0 mm | - | - | - |
| 1778062968 | 14.44° C | 72% | 1018.5 hPa | 0 mm | - | - | - |
| 1778062603 | 14.44° C | 72% | 1018.5 hPa | 0 mm | - | - | - |
| 1778062304 | 14.44° C | 72% | 1018.5 hPa | 0 mm | - | - | - |
| 1778061404 | 13.89° C | 72% | 1018.3 hPa | 0 mm | - | - | - |
| 1778060680 | 13.89° C | 70% | 1018.3 hPa | 0 mm | - | - | - |
| 1778060380 | 13.89° C | 70% | 1018.3 hPa | 0 mm | - | - | - |
| 1778059781 | 14.44° C | 69% | 1018.3 hPa | 0 mm | - | - | - |
| 1778058876 | 14.44° C | 68% | 1018.1 hPa | 0 mm | - | - | - |
| 1778058281 | 14.44° C | 68% | 1018.1 hPa | 0 mm | - | - | - |
| 1778056956 | 14.44° C | 66% | 1018.2 hPa | 0 mm | - | - | - |
* Rain latest hour (hover to see other rain measurements)
** Current wind speed in m/s (hover to see current wind gust speed)